Time,TemperatureF,DewpointF,PressureIn,WindDirection,WindDirectionDegrees,WindSpeedMPH,WindSpeedGustMPH,Humidity,HourlyPrecipIn,Conditions,Clouds,dailyrainin,SoftwareType,DateUTC
2013-05-09 00:05:00,64.5,36.9,29.94,North,360,0.0,0.0,36,0.00,,,0.00,Wunderground v.1.15,2013-05-09 05:05:00,
2013-05-09 00:10:00,64.5,36.9,29.94,North,360,0.0,0.0,36,0.00,,,0.00,Wunderground v.1.15,2013-05-09 05:10:00,
2013-05-09 00:20:00,64.7,36.4,29.93,North,32767,0.0,0.0,35,0.00,,,0.00,Wunderground v.1.15,2013-05-09 05:20:00,
2013-05-09 00:30:00,64.0,37.2,29.93,North,32767,0.0,0.0,37,0.00,,,0.00,Wunderground v.1.15,2013-05-09 05:30:00,
2013-05-09 00:35:00,63.8,37.0,29.93,North,32767,0.0,0.0,37,0.00,,,0.00,Wunderground v.1.15,2013-05-09 05:35:00,
2013-05-09 00:40:00,63.9,36.4,29.93,North,360,0.0,0.0,36,0.00,,,0.00,Wunderground v.1.15,2013-05-09 05:40:00,
2013-05-09 00:50:00,63.7,36.2,29.93,North,32767,0.0,0.0,36,0.00,,,0.00,Wunderground v.1.15,2013-05-09 05:50:00,
2013-05-09 01:00:00,63.2,36.5,29.93,North,360,0.0,0.0,37,0.00,,,0.00,Wunderground v.1.15,2013-05-09 06:00:00,
2013-05-09 01:05:00,63.1,35.7,29.94,North,360,0.0,0.0,36,0.00,,,0.00,Wunderground v.1.15,2013-05-09 06:05:00,
2013-05-09 01:10:00,63.2,35.8,29.94,North,32767,0.0,0.0,36,0.00,,,0.00,Wunderground v.1.15,2013-05-09 06:10:00,
2013-05-09 01:20:00,63.1,35.7,29.94,North,32767,0.0,0.0,36,0.00,,,0.00,Wunderground v.1.15,2013-05-09 06:20:00,
2013-05-09 01:30:00,63.0,35.6,29.93,North,32767,0.0,0.0,36,0.00,,,0.00,Wunderground v.1.15,2013-05-09 06:30:00,
2013-05-09 01:35:00,63.0,35.6,29.93,North,32767,0.0,0.0,36,0.00,,,0.00,Wunderground v.1.15,2013-05-09 06:35:00,
2013-05-09 01:40:00,62.9,35.5,29.93,North,360,0.0,0.0,36,0.00,,,0.00,Wunderground v.1.15,2013-05-09 06:40:00,
2013-05-09 01:50:00,63.4,35.2,29.93,North,32767,0.0,0.0,35,0.00,,,0.00,Wunderground v.1.15,2013-05-09 06:50:00,
2013-05-09 02:00:00,64.1,35.9,29.92,North,360,0.0,0.0,35,0.00,,,0.00,Wunderground v.1.15,2013-05-09 07:00:00,
2013-05-09 02:05:00,64.1,35.9,29.93,North,360,0.0,0.0,35,0.00,,,0.00,Wunderground v.1.15,2013-05-09 07:05:00,
2013-05-09 02:15:00,64.5,36.2,29.93,North,360,0.0,0.0,35,0.00,,,0.00,Wunderground v.1.15,2013-05-09 07:15:00,
2013-05-09 02:20:00,64.7,36.4,29.93,North,32767,0.0,0.0,35,0.00,,,0.00,Wunderground v.1.15,2013-05-09 07:20:00,
2013-05-09 02:25:00,65.1,36.0,29.92,North,360,0.0,0.0,34,0.00,,,0.00,Wunderground v.1.15,2013-05-09 07:25:00,
2013-05-09 02:30:00,65.2,36.1,29.92,North,32767,0.0,0.0,34,0.00,,,0.00,Wunderground v.1.15,2013-05-09 07:30:00,
2013-05-09 02:40:00,65.3,36.2,29.92,North,32767,0.0,0.0,34,0.00,,,0.00,Wunderground v.1.15,2013-05-09 07:40:00,
2013-05-09 02:50:00,65.4,36.3,29.92,North,360,0.0,0.0,34,0.00,,,0.00,Wunderground v.1.15,2013-05-09 07:50:00,
2013-05-09 02:55:00,65.5,36.4,29.92,North,32767,0.0,0.0,34,0.00,,,0.00,Wunderground v.1.15,2013-05-09 07:55:00,
2013-05-09 03:00:00,65.4,36.3,29.92,North,32767,0.0,0.0,34,0.00,,,0.00,Wunderground v.1.15,2013-05-09 08:00:00,
2013-05-09 03:10:00,65.4,36.3,29.92,North,360,0.0,0.0,34,0.00,,,0.00,Wunderground v.1.15,2013-05-09 08:10:00,
2013-05-09 03:20:00,65.2,36.1,29.93,North,32767,0.0,0.0,34,0.00,,,0.00,Wunderground v.1.15,2013-05-09 08:20:00,
2013-05-09 03:25:00,65.2,36.1,29.93,North,360,0.0,0.0,34,0.00,,,0.00,Wunderground v.1.15,2013-05-09 08:25:00,
2013-05-09 03:30:00,65.4,36.3,29.93,North,32767,0.0,0.0,34,0.00,,,0.00,Wunderground v.1.15,2013-05-09 08:30:00,
2013-05-09 03:40:00,65.5,36.4,29.93,North,32767,0.0,0.0,34,0.00,,,0.00,Wunderground v.1.15,2013-05-09 08:40:00,
2013-05-09 03:45:00,65.3,36.2,29.92,North,32767,0.0,0.0,34,0.00,,,0.00,Wunderground v.1.15,2013-05-09 08:45:00,
2013-05-09 03:50:00,65.1,36.0,29.92,North,32767,0.0,0.0,34,0.00,,,0.00,Wunderground v.1.15,2013-05-09 08:50:00,
2013-05-09 04:00:00,64.8,35.8,29.92,North,360,0.0,0.0,34,0.00,,,0.00,Wunderground v.1.15,2013-05-09 09:00:00,
2013-05-09 04:10:00,64.7,35.7,29.92,North,32767,0.0,0.0,34,0.00,,,0.00,Wunderground v.1.15,2013-05-09 09:10:00,
2013-05-09 04:20:00,64.4,35.4,29.92,North,360,0.0,0.0,34,0.00,,,0.00,Wunderground v.1.15,2013-05-09 09:20:00,
2013-05-09 04:30:00,64.5,35.5,29.92,North,32767,0.0,0.0,34,0.00,,,0.00,Wunderground v.1.15,2013-05-09 09:30:00,
2013-05-09 04:40:00,64.4,35.4,29.92,North,32767,0.0,0.0,34,0.00,,,0.00,Wunderground v.1.15,2013-05-09 09:40:00,
2013-05-09 04:45:00,64.5,35.5,29.92,North,32767,0.0,0.0,34,0.00,,,0.00,Wunderground v.1.15,2013-05-09 09:45:00,
2013-05-09 04:50:00,64.5,35.5,29.92,North,32767,0.0,0.0,34,0.00,,,0.00,Wunderground v.1.15,2013-05-09 09:50:00,
2013-05-09 05:00:00,64.5,35.5,29.92,North,32767,0.0,0.0,34,0.00,,,0.00,Wunderground v.1.15,2013-05-09 10:00:00,
2013-05-09 05:10:00,64.7,35.7,29.92,North,360,0.0,0.0,34,0.00,,,0.00,Wunderground v.1.15,2013-05-09 10:10:00,
2013-05-09 05:15:00,64.8,35.8,29.91,North,360,0.0,0.0,34,0.00,,,0.00,Wunderground v.1.15,2013-05-09 10:15:00,
2013-05-09 05:20:00,64.8,35.8,29.92,North,32767,0.0,0.0,34,0.00,,,0.00,Wunderground v.1.15,2013-05-09 10:20:00,
2013-05-09 05:30:00,65.0,35.9,29.92,North,32767,0.0,0.0,34,0.00,,,0.00,Wunderground v.1.15,2013-05-09 10:30:00,
2013-05-09 05:40:00,64.9,35.8,29.91,North,360,0.0,0.0,34,0.00,,,0.00,Wunderground v.1.15,2013-05-09 10:40:00,
2013-05-09 05:45:00,64.9,35.8,29.91,North,32767,0.0,0.0,34,0.00,,,0.00,Wunderground v.1.15,2013-05-09 10:45:00,
2013-05-09 05:50:00,65.0,35.9,29.92,North,360,0.0,0.0,34,0.00,,,0.00,Wunderground v.1.15,2013-05-09 10:50:00,
2013-05-09 06:00:00,65.2,36.1,29.92,North,360,0.0,0.0,34,0.00,,,0.00,Wunderground v.1.15,2013-05-09 11:00:00,
2013-05-09 06:10:00,65.3,36.2,29.92,North,32767,0.0,0.0,34,0.00,,,0.00,Wunderground v.1.15,2013-05-09 11:10:00,
2013-05-09 06:15:00,65.4,36.3,29.92,North,32767,0.0,0.0,34,0.00,,,0.00,Wunderground v.1.15,2013-05-09 11:15:00,
2013-05-09 06:20:00,65.5,36.4,29.92,North,32767,0.0,0.0,34,0.00,,,0.00,Wunderground v.1.15,2013-05-09 11:20:00,
2013-05-09 06:30:00,65.7,36.5,29.92,North,32767,0.0,0.0,34,0.00,,,0.00,Wunderground v.1.15,2013-05-09 11:30:00,
2013-05-09 06:35:00,65.9,36.7,29.93,North,32767,0.0,0.0,34,0.00,,,0.00,Wunderground v.1.15,2013-05-09 11:35:00,
2013-05-09 06:40:00,66.0,36.8,29.93,North,32767,0.0,0.0,34,0.00,,,0.00,Wunderground v.1.15,2013-05-09 11:40:00,
2013-05-09 06:50:00,66.0,36.8,29.93,North,360,0.0,0.0,34,0.00,,,0.00,Wunderground v.1.15,2013-05-09 11:50:00,
2013-05-09 07:00:00,66.1,36.9,29.94,North,360,0.0,0.0,34,0.00,,,0.00,Wunderground v.1.15,2013-05-09 12:00:00,
2013-05-09 07:05:00,66.3,36.3,29.94,North,360,0.0,0.0,33,0.00,,,0.00,Wunderground v.1.15,2013-05-09 12:05:00,
2013-05-09 07:15:00,66.5,36.5,29.95,North,360,0.0,0.0,33,0.00,,,0.00,Wunderground v.1.15,2013-05-09 12:15:00,
2013-05-09 07:20:00,66.7,36.7,29.95,North,32767,0.0,0.0,33,0.00,,,0.00,Wunderground v.1.15,2013-05-09 12:20:00,
2013-05-09 07:30:00,66.8,36.8,29.95,North,32767,0.0,0.0,33,0.00,,,0.00,Wunderground v.1.15,2013-05-09 12:30:00,
2013-05-09 07:35:00,67.0,36.9,29.95,North,32767,0.0,0.0,33,0.00,,,0.00,Wunderground v.1.15,2013-05-09 12:35:00,
2013-05-09 07:40:00,67.2,37.1,29.95,North,32767,0.0,0.0,33,0.00,,,0.00,Wunderground v.1.15,2013-05-09 12:40:00,
2013-05-09 07:50:00,67.7,37.5,29.95,North,360,0.0,0.0,33,0.00,,,0.00,Wunderground v.1.15,2013-05-09 12:50:00,
2013-05-09 08:00:00,67.9,37.7,29.95,North,360,0.0,0.0,33,0.00,,,0.00,Wunderground v.1.15,2013-05-09 13:00:00,
2013-05-09 08:05:00,68.0,37.8,29.96,North,360,0.0,0.0,33,0.00,,,0.00,Wunderground v.1.15,2013-05-09 13:05:00,
2013-05-09 08:10:00,68.1,37.9,29.95,North,32767,0.0,0.0,33,0.00,,,0.00,Wunderground v.1.15,2013-05-09 13:10:00,
2013-05-09 08:20:00,68.3,38.1,29.96,North,32767,0.0,0.0,33,0.00,,,0.00,Wunderground v.1.15,2013-05-09 13:20:00,
2013-05-09 08:30:00,68.2,38.0,29.96,North,360,0.0,0.0,33,0.00,,,0.00,Wunderground v.1.15,2013-05-09 13:30:00,
2013-05-09 08:35:00,68.2,38.0,29.96,North,360,0.0,0.0,33,0.00,,,0.00,Wunderground v.1.15,2013-05-09 13:35:00,
2013-05-09 08:45:00,68.4,38.2,29.96,North,32767,0.0,0.0,33,0.00,,,0.00,Wunderground v.1.15,2013-05-09 13:45:00,
2013-05-09 08:50:00,68.7,38.4,29.96,North,360,0.0,0.0,33,0.00,,,0.00,Wunderground v.1.15,2013-05-09 13:50:00,
2013-05-09 09:00:00,69.1,39.5,29.96,North,32767,0.0,0.0,34,0.00,,,0.00,Wunderground v.1.15,2013-05-09 14:00:00,
2013-05-09 09:05:00,69.3,39.7,29.96,North,360,0.0,0.0,34,0.00,,,0.00,Wunderground v.1.15,2013-05-09 14:05:00,
2013-05-09 09:10:00,69.4,39.8,29.96,North,32767,0.0,0.0,34,0.00,,,0.00,Wunderground v.1.15,2013-05-09 14:10:00,
2013-05-09 09:20:00,70.1,40.4,29.96,North,32767,0.0,0.0,34,0.00,,,0.00,Wunderground v.1.15,2013-05-09 14:20:00,
2013-05-09 09:30:00,70.6,41.6,29.96,North,32767,0.0,0.0,35,0.00,,,0.00,Wunderground v.1.15,2013-05-09 14:30:00,
2013-05-09 09:35:00,70.7,42.4,29.96,North,32767,0.0,0.0,36,0.00,,,0.00,Wunderground v.1.15,2013-05-09 14:35:00,
2013-05-09 09:40:00,71.0,42.7,29.96,North,360,0.0,0.0,36,0.00,,,0.00,Wunderground v.1.15,2013-05-09 14:40:00,
2013-05-09 09:50:00,71.9,44.9,29.96,North,32767,0.0,0.0,38,0.00,,,0.00,Wunderground v.1.15,2013-05-09 14:50:00,
2013-05-09 10:00:00,72.9,47.8,29.96,North,360,0.0,0.0,41,0.00,,,0.00,Wunderground v.1.15,2013-05-09 15:00:00,
2013-05-09 10:05:00,73.3,48.8,29.96,North,32767,0.0,0.0,42,0.00,,,0.00,Wunderground v.1.15,2013-05-09 15:05:00,
2013-05-09 10:10:00,73.8,49.9,29.96,North,360,0.0,0.0,43,0.00,,,0.00,Wunderground v.1.15,2013-05-09 15:10:00,
2013-05-09 10:20:00,74.3,51.6,29.96,North,32767,0.0,0.0,45,0.00,,,0.00,Wunderground v.1.15,2013-05-09 15:20:00,
2013-05-09 10:30:00,75.0,52.2,29.96,North,32767,0.0,0.0,45,0.00,,,0.00,Wunderground v.1.15,2013-05-09 15:30:00,
2013-05-09 10:35:00,75.1,53.5,29.96,North,32767,0.0,0.0,47,0.00,,,0.00,Wunderground v.1.15,2013-05-09 15:35:00,
2013-05-09 10:40:00,74.8,53.2,29.97,North,32767,0.0,0.0,47,0.00,,,0.00,Wunderground v.1.15,2013-05-09 15:40:00,
2013-05-09 10:50:00,74.7,52.5,29.97,North,32767,0.0,0.0,46,0.00,,,0.00,Wunderground v.1.15,2013-05-09 15:50:00,
2013-05-09 10:55:00,75.0,53.4,29.97,North,32767,0.0,0.0,47,0.00,,,0.00,Wunderground v.1.15,2013-05-09 15:55:00,
2013-05-09 11:00:00,75.0,53.4,29.97,North,32767,0.0,0.0,47,0.00,,,0.00,Wunderground v.1.15,2013-05-09 16:00:00,
2013-05-09 11:10:00,74.9,53.3,29.97,North,32767,0.0,0.0,47,0.00,,,0.00,Wunderground v.1.15,2013-05-09 16:10:00,
2013-05-09 11:20:00,74.6,52.4,29.96,North,360,0.0,0.0,46,0.00,,,0.00,Wunderground v.1.15,2013-05-09 16:20:00,
2013-05-09 11:25:00,74.6,52.4,29.96,North,360,0.0,0.0,46,0.00,,,0.00,Wunderground v.1.15,2013-05-09 16:25:00,
2013-05-09 11:35:00,73.4,49.5,29.97,North,360,0.0,0.0,43,0.00,,,0.00,Wunderground v.1.15,2013-05-09 16:35:00,
2013-05-09 11:40:00,72.8,47.7,29.97,North,32767,0.0,0.0,41,0.00,,,0.00,Wunderground v.1.15,2013-05-09 16:40:00,
2013-05-09 11:45:00,72.4,46.0,29.97,North,360,0.0,0.0,39,0.00,,,0.00,Wunderground v.1.15,2013-05-09 16:45:00,
2013-05-09 11:50:00,72.4,46.0,29.97,North,32767,0.0,0.0,39,0.00,,,0.00,Wunderground v.1.15,2013-05-09 16:50:00,
2013-05-09 12:00:00,72.1,45.8,29.97,North,32767,0.0,0.0,39,0.00,,,0.00,Wunderground v.1.15,2013-05-09 17:00:00,
2013-05-09 12:05:00,72.1,45.1,29.97,North,360,0.0,0.0,38,0.00,,,0.00,Wunderground v.1.15,2013-05-09 17:05:00,
2013-05-09 12:15:00,71.9,44.2,29.97,North,32767,0.0,0.0,37,0.00,,,0.00,Wunderground v.1.15,2013-05-09 17:15:00,
2013-05-09 12:20:00,71.7,44.0,29.97,North,360,0.0,0.0,37,0.00,,,0.00,Wunderground v.1.15,2013-05-09 17:20:00,
2013-05-09 12:30:00,71.4,43.0,29.97,North,32767,0.0,0.0,36,0.00,,,0.00,Wunderground v.1.15,2013-05-09 17:30:00,
2013-05-09 12:35:00,71.2,42.9,29.97,North,32767,0.0,0.0,36,0.00,,,0.00,Wunderground v.1.15,2013-05-09 17:35:00,
2013-05-09 12:40:00,71.0,42.7,29.97,North,360,0.0,0.0,36,0.00,,,0.00,Wunderground v.1.15,2013-05-09 17:40:00,
2013-05-09 12:50:00,71.1,42.0,29.97,North,360,0.0,0.0,35,0.00,,,0.00,Wunderground v.1.15,2013-05-09 17:50:00,
2013-05-09 13:00:00,71.3,41.5,29.96,North,360,0.0,0.0,34,0.00,,,0.00,Wunderground v.1.15,2013-05-09 18:00:00,
2013-05-09 13:05:00,71.3,41.5,29.96,North,360,0.0,0.0,34,0.00,,,0.00,Wunderground v.1.15,2013-05-09 18:05:00,
2013-05-09 13:10:00,71.6,41.7,29.96,North,360,0.0,0.0,34,0.00,,,0.00,Wunderground v.1.15,2013-05-09 18:10:00,
2013-05-09 13:20:00,71.6,42.5,29.96,North,32767,0.0,0.0,35,0.00,,,0.00,Wunderground v.1.15,2013-05-09 18:20:00,
2013-05-09 13:30:00,71.4,42.3,29.96,North,32767,0.0,0.0,35,0.00,,,0.00,Wunderground v.1.15,2013-05-09 18:30:00,
2013-05-09 13:35:00,71.7,41.8,29.96,North,32767,0.0,0.0,34,0.00,,,0.00,Wunderground v.1.15,2013-05-09 18:35:00,
2013-05-09 13:45:00,72.4,42.4,29.95,North,360,0.0,0.0,34,0.00,,,0.00,Wunderground v.1.15,2013-05-09 18:45:00,
2013-05-09 13:50:00,72.2,43.0,29.95,North,32767,0.0,0.0,35,0.00,,,0.00,Wunderground v.1.15,2013-05-09 18:50:00,
2013-05-09 14:00:00,72.6,44.8,29.95,North,32767,0.0,0.0,37,0.00,,,0.00,Wunderground v.1.15,2013-05-09 19:00:00,
2013-05-09 14:05:00,72.8,46.4,29.95,North,32767,0.0,0.0,39,0.00,,,0.00,Wunderground v.1.15,2013-05-09 19:05:00,
2013-05-09 14:10:00,72.9,47.8,29.94,North,360,0.0,0.0,41,0.00,,,0.00,Wunderground v.1.15,2013-05-09 19:10:00,
2013-05-09 14:20:00,72.6,46.9,29.94,North,32767,0.0,0.0,40,0.00,,,0.00,Wunderground v.1.15,2013-05-09 19:20:00,
2013-05-09 14:25:00,72.6,46.9,29.94,North,360,0.0,0.0,40,0.00,,,0.00,Wunderground v.1.15,2013-05-09 19:25:00,
2013-05-09 14:30:00,72.7,46.3,29.94,North,360,0.0,0.0,39,0.00,,,0.00,Wunderground v.1.15,2013-05-09 19:30:00,
2013-05-09 14:40:00,72.7,47.0,29.93,North,32767,0.0,0.0,40,0.00,,,0.00,Wunderground v.1.15,2013-05-09 19:40:00,
2013-05-09 14:50:00,72.6,46.2,29.92,North,32767,0.0,0.0,39,0.00,,,0.00,Wunderground v.1.15,2013-05-09 19:50:00,
2013-05-09 15:00:00,72.4,46.0,29.92,North,32767,0.0,0.0,39,0.00,,,0.00,Wunderground v.1.15,2013-05-09 20:00:00,
2013-05-09 15:05:00,72.3,45.9,29.92,North,360,0.0,0.0,39,0.00,,,0.00,Wunderground v.1.15,2013-05-09 20:05:00,
2013-05-09 15:15:00,72.1,47.1,29.92,North,360,0.0,0.0,41,0.00,,,0.00,Wunderground v.1.15,2013-05-09 20:15:00,
2013-05-09 15:20:00,71.9,46.3,29.92,North,360,0.0,0.0,40,0.00,,,0.00,Wunderground v.1.15,2013-05-09 20:20:00,
2013-05-09 15:25:00,71.7,45.4,29.91,North,360,0.0,0.0,39,0.00,,,0.00,Wunderground v.1.15,2013-05-09 20:25:00,
2013-05-09 15:30:00,71.6,45.3,29.91,North,32767,0.0,0.0,39,0.00,,,0.00,Wunderground v.1.15,2013-05-09 20:30:00,
2013-05-09 15:40:00,71.6,44.6,29.91,North,32767,0.0,0.0,38,0.00,,,0.00,Wunderground v.1.15,2013-05-09 20:40:00,
2013-05-09 15:50:00,71.6,45.3,29.91,North,32767,0.0,0.0,39,0.00,,,0.00,Wunderground v.1.15,2013-05-09 20:50:00,
2013-05-09 16:00:00,71.7,45.4,29.91,North,360,0.0,0.0,39,0.00,,,0.00,Wunderground v.1.15,2013-05-09 21:00:00,
2013-05-09 16:10:00,71.9,46.3,29.90,North,360,0.0,0.0,40,0.00,,,0.00,Wunderground v.1.15,2013-05-09 21:10:00,
2013-05-09 16:20:00,72.1,45.8,29.89,North,32767,0.0,0.0,39,0.00,,,0.00,Wunderground v.1.15,2013-05-09 21:20:00,
2013-05-09 16:25:00,72.4,46.0,29.88,North,32767,0.0,0.0,39,0.00,,,0.00,Wunderground v.1.15,2013-05-09 21:25:00,
2013-05-09 16:35:00,73.0,47.2,29.89,North,32767,0.0,0.0,40,0.00,,,0.00,Wunderground v.1.15,2013-05-09 21:35:00,
2013-05-09 16:40:00,73.1,48.6,29.89,North,32767,0.0,0.0,42,0.00,,,0.00,Wunderground v.1.15,2013-05-09 21:40:00,
2013-05-09 16:45:00,73.0,48.5,29.88,North,32767,0.0,0.0,42,0.00,,,0.00,Wunderground v.1.15,2013-05-09 21:45:00,
2013-05-09 16:50:00,72.9,47.8,29.88,North,32767,0.0,0.0,41,0.00,,,0.00,Wunderground v.1.15,2013-05-09 21:50:00,
2013-05-09 17:00:00,72.8,47.7,29.88,North,32767,0.0,0.0,41,0.00,,,0.00,Wunderground v.1.15,2013-05-09 22:00:00,
2013-05-09 17:10:00,72.7,47.6,29.88,North,32767,0.0,0.0,41,0.00,,,0.00,Wunderground v.1.15,2013-05-09 22:10:00,
2013-05-09 17:20:00,72.6,47.5,29.88,North,32767,0.0,0.0,41,0.00,,,0.00,Wunderground v.1.15,2013-05-09 22:20:00,
2013-05-09 17:25:00,72.6,47.5,29.87,North,32767,0.0,0.0,41,0.00,,,0.00,Wunderground v.1.15,2013-05-09 22:25:00,
2013-05-09 17:30:00,72.5,47.5,29.88,North,32767,0.0,0.0,41,0.00,,,0.00,Wunderground v.1.15,2013-05-09 22:30:00,
2013-05-09 17:40:00,72.5,47.5,29.87,North,360,0.0,0.0,41,0.00,,,0.00,Wunderground v.1.15,2013-05-09 22:40:00,
2013-05-09 17:50:00,72.4,47.4,29.87,North,32767,0.0,0.0,41,0.00,,,0.00,Wunderground v.1.15,2013-05-09 22:50:00,
2013-05-09 17:55:00,72.3,47.3,29.87,North,360,0.0,0.0,41,0.00,,,0.00,Wunderground v.1.15,2013-05-09 22:55:00,
2013-05-09 18:05:00,72.2,46.5,29.87,North,360,0.0,0.0,40,0.00,,,0.00,Wunderground v.1.15,2013-05-09 23:05:00,
2013-05-09 18:10:00,72.2,46.5,29.87,North,32767,0.0,0.0,40,0.00,,,0.00,Wunderground v.1.15,2013-05-09 23:10:00,
2013-05-09 18:20:00,72.0,46.3,29.86,North,32767,0.0,0.0,40,0.00,,,0.00,Wunderground v.1.15,2013-05-09 23:20:00,
2013-05-09 18:25:00,72.0,47.0,29.85,North,32767,0.0,0.0,41,0.00,,,0.00,Wunderground v.1.15,2013-05-09 23:25:00,
2013-05-09 18:30:00,71.9,46.9,29.85,North,32767,0.0,0.0,41,0.00,,,0.00,Wunderground v.1.15,2013-05-09 23:30:00,
2013-05-09 18:40:00,71.8,46.8,29.84,North,32767,0.0,0.0,41,0.00,,,0.00,Wunderground v.1.15,2013-05-09 23:40:00,
2013-05-09 18:45:00,71.8,46.8,29.84,North,32767,0.0,0.0,41,0.00,,,0.00,Wunderground v.1.15,2013-05-09 23:45:00,
2013-05-09 18:50:00,71.8,46.8,29.84,North,360,0.0,0.0,41,0.00,,,0.00,Wunderground v.1.15,2013-05-09 23:50:00,
2013-05-09 19:00:00,71.7,46.7,29.84,North,32767,0.0,0.0,41,0.00,,,0.00,Wunderground v.1.15,2013-05-10 00:00:00,
2013-05-09 19:10:00,71.6,46.0,29.83,North,32767,0.0,0.0,40,0.00,,,0.00,Wunderground v.1.15,2013-05-10 00:10:00,
2013-05-09 19:20:00,71.5,45.9,29.83,North,360,0.0,0.0,40,0.00,,,0.00,Wunderground v.1.15,2013-05-10 00:20:00,
2013-05-09 19:25:00,71.4,45.1,29.84,North,32767,0.0,0.0,39,0.00,,,0.00,Wunderground v.1.15,2013-05-10 00:25:00,
2013-05-09 19:30:00,71.5,45.2,29.84,North,360,0.0,0.0,39,0.00,,,0.00,Wunderground v.1.15,2013-05-10 00:30:00,
2013-05-09 19:40:00,71.5,44.5,29.84,North,360,0.0,0.0,38,0.00,,,0.00,Wunderground v.1.15,2013-05-10 00:40:00,
2013-05-09 19:45:00,71.5,44.5,29.83,North,360,0.0,0.0,38,0.00,,,0.00,Wunderground v.1.15,2013-05-10 00:45:00,
2013-05-09 19:50:00,71.5,44.5,29.84,North,32767,0.0,0.0,38,0.00,,,0.00,Wunderground v.1.15,2013-05-10 00:50:00,
2013-05-09 20:00:00,71.5,43.8,29.82,North,32767,0.0,0.0,37,0.00,,,0.00,Wunderground v.1.15,2013-05-10 01:00:00,
2013-05-09 20:10:00,71.6,43.9,29.83,North,32767,0.0,0.0,37,0.00,,,0.00,Wunderground v.1.15,2013-05-10 01:10:00,
2013-05-09 20:20:00,71.7,44.0,29.84,North,32767,0.0,0.0,37,0.00,,,0.00,Wunderground v.1.15,2013-05-10 01:20:00,
2013-05-09 20:30:00,71.8,43.4,29.84,North,360,0.0,0.0,36,0.00,,,0.00,Wunderground v.1.15,2013-05-10 01:30:00,
2013-05-09 20:40:00,71.8,43.4,29.85,North,32767,0.0,0.0,36,0.00,,,0.00,Wunderground v.1.15,2013-05-10 01:40:00,
2013-05-09 20:45:00,71.8,43.4,29.84,North,360,0.0,0.0,36,0.00,,,0.00,Wunderground v.1.15,2013-05-10 01:45:00,
2013-05-09 20:55:00,71.8,44.1,29.84,North,32767,0.0,0.0,37,0.00,,,0.00,Wunderground v.1.15,2013-05-10 01:55:00,
2013-05-09 21:00:00,71.8,44.1,29.82,North,360,0.0,0.0,37,0.00,,,0.00,Wunderground v.1.15,2013-05-10 02:00:00,
2013-05-09 21:05:00,71.9,44.2,29.83,North,360,0.0,0.0,37,0.00,,,0.00,Wunderground v.1.15,2013-05-10 02:05:00,
2013-05-09 21:10:00,71.9,44.2,29.84,North,32767,0.0,0.0,37,0.00,,,0.00,Wunderground v.1.15,2013-05-10 02:10:00,
2013-05-09 21:20:00,72.0,45.0,29.84,North,32767,0.0,0.0,38,0.00,,,0.00,Wunderground v.1.15,2013-05-10 02:20:00,
2013-05-09 21:30:00,72.0,45.0,29.84,North,32767,0.0,0.0,38,0.00,,,0.00,Wunderground v.1.15,2013-05-10 02:30:00,
2013-05-09 21:35:00,72.0,44.3,29.84,North,32767,0.0,0.0,37,0.00,,,0.00,Wunderground v.1.15,2013-05-10 02:35:00,
2013-05-09 21:40:00,72.0,44.3,29.84,North,32767,0.0,0.0,37,0.00,,,0.00,Wunderground v.1.15,2013-05-10 02:40:00,
2013-05-09 21:50:00,71.9,44.2,29.84,North,32767,0.0,0.0,37,0.00,,,0.00,Wunderground v.1.15,2013-05-10 02:50:00,
2013-05-09 22:00:00,72.0,45.0,29.84,North,360,0.0,0.0,38,0.00,,,0.00,Wunderground v.1.15,2013-05-10 03:00:00,
2013-05-09 22:05:00,72.1,45.1,29.84,North,360,0.0,0.0,38,0.00,,,0.00,Wunderground v.1.15,2013-05-10 03:05:00,
2013-05-09 22:10:00,72.0,45.0,29.83,North,32767,0.0,0.0,38,0.00,,,0.00,Wunderground v.1.15,2013-05-10 03:10:00,
2013-05-09 22:20:00,72.0,45.0,29.84,North,360,0.0,0.0,38,0.00,,,0.00,Wunderground v.1.15,2013-05-10 03:20:00,
2013-05-09 22:30:00,72.1,45.1,29.83,North,32767,0.0,0.0,38,0.00,,,0.00,Wunderground v.1.15,2013-05-10 03:30:00,
2013-05-09 22:35:00,72.1,45.1,29.83,North,360,0.0,0.0,38,0.00,,,0.00,Wunderground v.1.15,2013-05-10 03:35:00,
2013-05-09 22:40:00,72.1,45.1,29.84,North,32767,0.0,0.0,38,0.00,,,0.00,Wunderground v.1.15,2013-05-10 03:40:00,